Location: Unspecified
(40.7945°N, 111.1337°W)
Time: 03:32:43
(UTC-06:00)

Vanguard 1 - Pass Details

Date: 28 June 2019
Orbit: 653 x 3830 km, 34.3° (Epoch: 17 July)

Event Time Altitude Azimuth Distance (km) Brightness Sun altitude
Rises 01:11:07 0° 223° (SW) 7,846 14.3 -25.8°
Reaches altitude 10° 01:16:44 10° 218° (SW) 6,914 13.9 -25.9°
Enters shadow 01:17:35 12° 217° (SW) 6,773 13.9 -25.9°
Exits shadow 01:23:05 22° 210° (SSW) 5,877 13.5 -25.9°
Maximum altitude 01:38:10 48° 153° (SSE) 4,062 12.7 -25.9°
Drops below altitude 10° 01:53:29 10° 87° (E) 5,126 13.8 -25.6°
Sets 01:56:52 0° 81° (E) 5,773 14.2 -25.6°
